User: anonymous   Login
Location: Unspecified
(40.7945°N, 111.1337°W)
Time: 10:31:45
(UTC-06:00)
Language:

CZ-3 Stage 3 - Orbit

View from above orbital plane
View from above orbital plane
View from above satellite
View from above satellite

Ground track
Ground track

The orbit data is extracted from the following two-line orbital elements,

1 14900U 84035B   19139.42629322 -.00000021  00000-0  15661-3 0  9993
2 14900  30.5338 169.1889 7129962   6.6722 359.3662  2.33874023231168
Epoch (UTC): 19 May 2019 10:13:51
Eccentricity: 0.7129962
inclination: 30.5338°
perigee height: 502 km
apogee height: 34689 km
right ascension of ascending node: 169.1889°
argument of perigee: 6.6722°
revolutions per day: 2.33874023
mean anomaly at epoch: 359.3662°
orbit number at epoch: 23116

The dashed part of the orbit path shows where the satellite is in the earth's shadow,  

DLR